Location: Pian di Sc�
(43.6333°N, 11.5500°E)
Time: 13:14:27
(UTC+00:00)

Cosmos 2298 Rocket - Pass Details

Date: 07 August 2020
Orbit: 776 x 784 km, 74.0° (Epoch: 24 September)

Event Time Altitude Azimuth Distance (km) Brightness Sun altitude
Exits shadow 02:57:04 - 191° (SSW) 2,509 6.2 -12.2°
Reaches altitude 10° 02:57:33 10° 191° (S) 2,324 6.1 -12.1°
Maximum altitude 03:02:48 73° 108° (ESE) 820 4.3 -11.3°
Drops below altitude 10° 03:08:07 10° 24° (NNE) 2,346 7.5 -10.6°
Sets 03:10:31 0° 23° (NNE) 3,279 8.3 -10.2°
